Regional Weather Roundup
Issued by NWS Cleveland, OH

Home | Current Version | Previous Version | Graphics & Text | Print | Product List | Glossary On
Versions: 1 2 3 4 5 6 7 8 9 10 11 12 13 14 15 16 17 18 19 20 21 22 23 24 25 26 27 28 29 30 31 32 33 34 35 36 37 38 39 40 41 42 43 44 45 46 47 48 49 50
000
ASUS41 KCLE 102010
RWRCLE
OHIO REGIONAL WEATHER ROUNDUP
NATIONAL WEATHER SERVICE WILMINGTON, OH
400 PM EDT THU JUL 10 2014

NOTE: "FAIR" INDICATES FEW OR NO CLOUDS BELOW 12,000 FEET WITH NO
SIGNIFICANT WEATHER AND/OR OBSTRUCTIONS TO VISIBILITY.

OHZ001>008-015>018-024>027-034-035-043-044-102100-
   NORTHWEST OHIO

CITY           SKY/WX    TMP DP  RH WIND       PRES   REMARKS
DEFIANCE       PTSUNNY   79  52  38 N6        30.15F
FINDLAY        SUNNY     79  53  40 VRB5      30.13F
TOLEDO EXPRESS CLOUDY    75  54  47 CALM      30.13F
TOLEDO METCALF PTSUNNY   76  53  44 NE5       30.15F
LIMA           SUNNY     77  54  44 N9        30.15F
$$

OHZ009>014-019>023-028>033-038-089-102100-
   NORTHEAST OHIO

CITY           SKY/WX    TMP DP  RH WIND       PRES   REMARKS
CLE-HOPKINS    MOSUNNY   76  59  55 N14       30.15S
CLE-LAKEFRONT  MOSUNNY   74  61  63 NE17      30.11F
CUY CO. ARPT   PTSUNNY   77  61  57 NE17      30.14F
LORAIN-ELYRIA  MOSUNNY   79  60  52 NE10      30.14S
ASHTABULA      MOSUNNY   74  58  57 N6        30.16S
AKRON-CANTON   PTSUNNY   79  54  41 CALM      30.12F
WOOSTER        PTSUNNY   80  58  46 N9        30.13S
MANSFIELD      MOSUNNY   79  57  46 NW8       30.14F
YOUNGSTOWN     PTSUNNY   78  54  43 NE7       30.14S
$$

OHZ042-051>053-060>062-070>072-077>081-102100-
  SOUTHWEST OHIO

CITY           SKY/WX    TMP DP  RH WIND       PRES   REMARKS
CINC-COVINGTON PTSUNNY   80  55  42 NW8       30.12S
CINC-LUNKEN    SUNNY     83  59  44 N8        30.10F
HAMILTON       SUNNY     83  58  42 N6        30.13F
DAYTON         MOSUNNY   79  53  40 NW6       30.15F
WRIGHT-PAT AFB MOSUNNY   79  57  46 NW9G17    30.13F
DAYTON GENERAL PTSUNNY   79  58  48 N12G20    30.12F
WILMINGTON     PTSUNNY   78  56  46 N10       30.12F
$$

OHZ036-037-039>041-045>050-054>059-063>069-073>076-082>088-102100-
  CENTRAL AND SOUTHEAST OHIO

CITY           SKY/WX    TMP DP  RH WIND       PRES   REMARKS
COLUMBUS       PTSUNNY   81  56  42 N7        30.10F
OSU AIRPORT    MOSUNNY   81  57  43 NW9       30.11F
BOLTON FIELD   PTSUNNY   81  61  50 NW9       30.12F
RICKENBACK AFB PTSUNNY   84  50  30 N9        30.10S
NEWARK         SUNNY     81  56  42 NW7       30.10F
MARION         SUNNY     78  54  43 NW9       30.13F
LANCASTER      SUNNY     83  59  44 N6        30.10F
ZANESVILLE     MOSUNNY   81  56  42 VRB3      30.10F
NEW PHILLY     MOSUNNY   81  59  47 MISG      30.10F
$$



USA.gov is the U.S. government's official web portal to all federal, state and local government web resources and services.